Location: Monrovia
(34.7865°N, 86.7139°W)
Time: 21:30:01
(UTC+00:00)

Resurs 1-4 Rocket - Pass Details

Date: 14 July 2020
Orbit: 800 x 814 km, 98.6° (Epoch: 08 August)

Event Time Altitude Azimuth Distance (km) Brightness Sun altitude
Rises 08:09:15 0° 0° (N) 3,339 6.1 -25.0°
Reaches altitude 10° 08:11:50 10° 350° (N) 2,402 5.1 -24.7°
Maximum altitude 08:16:24 30° 291° (WNW) 1,414 3.2 -24.1°
Enters shadow 08:16:39 30° 286° (WNW) 1,417 3.2 -24.1°
